,,,PA_Meas_PMT16A,,PR_Meas_QMR101_102,,RH_Meas_QMH101,,SR_Meas_QMS101,,TA_Meas_QMH101,,GenWind,,GenWind,
date,time,status,PA,status,PR,status,RH,status,SR,status,TA,status,DirAvg,status,SpdAvg,
2011-04-22, 00:00:05,VALID,1001.45,VALID,0.5,VALID,93.2416,VALID,0,VALID,23.7012,VALID,221,VALID,1.81992,
2011-04-22, 00:01:05,VALID,1001.45,VALID,0.5,VALID,93.2721,VALID,0,VALID,23.7597,VALID,217,VALID,1.57852,
2011-04-22, 00:02:05,VALID,1001.43,VALID,0,VALID,93.2797,VALID,0,VALID,23.7793,VALID,213,VALID,1.20898,
2011-04-22, 00:03:05,VALID,1001.44,VALID,0.5,VALID,93.2721,VALID,0,VALID,23.7988,VALID,229,VALID,1.08594,
2011-04-22, 00:04:05,VALID,1001.45,VALID,0,VALID,93.3103,VALID,0,VALID,23.8183,VALID,205,VALID,1.225,
2011-04-22, 00:05:05,VALID,1001.42,VALID,0.5,VALID,93.3255,VALID,0,VALID,23.7988,VALID,193,VALID,0.813672,
2011-04-22, 00:06:05,VALID,1001.46,VALID,0,VALID,93.3331,VALID,0,VALID,23.8183,VALID,188,VALID,0.950781,
2011-04-22, 00:07:05,VALID,1001.41,VALID,0,VALID,93.3408,VALID,0,VALID,23.8183,VALID,181,VALID,0.758594,
2011-04-22, 00:08:05,VALID,1001.43,VALID,0.5,VALID,93.356,VALID,0,VALID,23.7384,VALID,168,VALID,1.29766,
2011-04-22, 00:09:05,VALID,1001.42,VALID,0,VALID,93.3866,VALID,0,VALID,23.7597,VALID,173,VALID,0.848047,
2011-04-22, 00:10:05,VALID,1001.4,VALID,0,VALID,93.3866,VALID,0.112286,VALID,23.7597,VALID,160,VALID,0.901953,
2011-04-22, 00:11:05,VALID,1001.39,VALID,0,VALID,93.3942,VALID,0,VALID,23.7402,VALID,159,VALID,0.642187,
2011-04-22, 00:12:05,VALID,1001.4,VALID,0,VALID,93.4018,VALID,0,VALID,23.7402,VALID,133,VALID,0.683203,
2011-04-22, 00:13:05,VALID,1001.38,VALID,0,VALID,93.3942,VALID,0,VALID,23.7012,VALID,133,VALID,0.826953,
2011-04-22, 00:14:05,VALID,1001.37,VALID,0,VALID,93.4094,VALID,0,VALID,23.6409,VALID,136,VALID,0.760938,
2011-04-22, 00:15:05,VALID,1001.38,VALID,0,VALID,93.4476,VALID,0,VALID,23.6622,VALID,134,VALID,0.527344,
2011-04-22, 00:16:05,VALID,1001.34,VALID,0,VALID,93.4323,VALID,0,VALID,23.6214,VALID,63,VALID,0.893359,
2011-04-22, 00:17:05,VALID,1001.32,VALID,0,VALID,93.4705,VALID,0,VALID,23.5823,VALID,63,VALID,0.767187,
2011-04-22, 00:18:05,VALID,1001.31,VALID,0,VALID,93.4705,VALID,0,VALID,23.6036,VALID,63,VALID,0.475,
2011-04-22, 00:19:05,VALID,1001.29,VALID,0,VALID,93.4705,VALID,0,VALID,23.5628,VALID,114,VALID,0.892969,
2011-04-22, 00:20:05,VALID,1001.29,VALID,0,VALID,93.4781,VALID,0,VALID,23.6036,VALID,114,VALID,0.957031,
2011-04-22, 00:21:05,VALID,1001.29,VALID,0,VALID,93.4628,VALID,0,VALID,23.6214,VALID,114,VALID,1.05,
2011-04-22, 00:22:05,VALID,1001.24,VALID,0,VALID,93.4934,VALID,0.112286,VALID,23.6622,VALID,114,VALID,1.04805,
2011-04-22, 00:23:05,VALID,1001.25,VALID,0,VALID,93.4857,VALID,0,VALID,23.7012,VALID,123,VALID,1.06016,
2011-04-22, 00:24:05,VALID,1001.24,VALID,0,VALID,93.4781,VALID,0.112286,VALID,23.7384,VALID,124,VALID,0.829297,
2011-04-22, 00:25:05,VALID,1001.22,VALID,0,VALID,93.4934,VALID,0,VALID,23.7597,VALID,125,VALID,0.682422,
2011-04-22, 00:26:05,VALID,1001.2,VALID,0,VALID,93.4781,VALID,0,VALID,23.7793,VALID,134,VALID,0.761328,
2011-04-22, 00:27:05,VALID,1001.16,VALID,0,VALID,93.4781,VALID,0,VALID,23.797,VALID,133,VALID,1.15664,
2011-04-22, 00:28:05,VALID,1001.15,VALID,0,VALID,93.5086,VALID,0,VALID,23.8183,VALID,117,VALID,0.751562,
2011-04-22, 00:29:05,VALID,1001.15,VALID,0,VALID,93.5086,VALID,0,VALID,23.8378,VALID,111,VALID,1.30508,
2011-04-22, 00:30:05,VALID,1001.13,VALID,0,VALID,93.5086,VALID,0,VALID,23.8165,VALID,111,VALID,1.04609,
2011-04-22, 00:31:05,VALID,1001.14,VALID,0,VALID,93.4934,VALID,0,VALID,23.875,VALID,103,VALID,1.32422,
2011-04-22, 00:32:05,VALID,1001.17,VALID,0,VALID,93.501,VALID,0,VALID,23.8768,VALID,97,VALID,1.02813,
2011-04-22, 00:33:05,VALID,1001.18,VALID,0,VALID,93.5086,VALID,0,VALID,23.8945,VALID,92,VALID,1.22578,
2011-04-22, 00:34:05,VALID,1001.18,VALID,0,VALID,93.501,VALID,0,VALID,23.875,VALID,81,VALID,1.35859,
2011-04-22, 00:35:05,VALID,1001.17,VALID,0,VALID,93.5239,VALID,0,VALID,23.8573,VALID,64,VALID,0.907031,
2011-04-22, 00:36:05,VALID,1001.18,VALID,0,VALID,93.5315,VALID,0,VALID,23.8378,VALID,61,VALID,0.892578,
2011-04-22, 00:37:05,VALID,1001.17,VALID,0,VALID,93.5544,VALID,0,VALID,23.7775,VALID,63,VALID,0.501953,
2011-04-22, 00:38:05,VALID,1001.15,VALID,0,VALID,93.5391,VALID,0,VALID,23.7793,VALID,63,VALID,0.0375,
2011-04-22, 00:39:05,VALID,1001.16,VALID,0,VALID,93.5468,VALID,0,VALID,23.7597,VALID,87,VALID,0.690234,
2011-04-22, 00:40:05,VALID,1001.18,VALID,0,VALID,93.5391,VALID,0.112286,VALID,23.7597,VALID,88,VALID,0.195313,
2011-04-22, 00:41:05,VALID,1001.15,VALID,0,VALID,93.5468,VALID,0,VALID,23.7597,VALID,88,VALID,0,
2011-04-22, 00:42:05,VALID,1001.17,VALID,0,VALID,93.5239,VALID,0,VALID,23.7793,VALID,88,VALID,0,
2011-04-22, 00:43:05,VALID,1001.21,VALID,0,VALID,93.5544,VALID,0.112286,VALID,23.7988,VALID,88,VALID,0.361328,
2011-04-22, 00:44:05,VALID,1001.22,VALID,0,VALID,93.5468,VALID,0,VALID,23.8165,VALID,88,VALID,0.521484,
2011-04-22, 00:45:05,VALID,1001.23,VALID,0,VALID,93.5468,VALID,0,VALID,23.8573,VALID,88,VALID,0.420703,
2011-04-22, 00:46:05,VALID,1001.25,VALID,0,VALID,93.5391,VALID,0.112286,VALID,23.8573,VALID,88,VALID,0,
2011-04-22, 00:47:05,VALID,1001.26,VALID,0,VALID,93.5468,VALID,0,VALID,23.8768,VALID,88,VALID,0.0378906,
2011-04-22, 00:48:05,VALID,1001.31,VALID,0,VALID,93.5468,VALID,0,VALID,23.8768,VALID,17,VALID,0.519141,
2011-04-22, 00:49:05,VALID,1001.31,VALID,0,VALID,93.5773,VALID,0,VALID,23.8768,VALID,313,VALID,0.918359,
2011-04-22, 00:50:05,VALID,1001.3,VALID,0,VALID,93.5391,VALID,0,VALID,23.8768,VALID,309,VALID,0.753125,
2011-04-22, 00:51:05,VALID,1001.26,VALID,0,VALID,93.5697,VALID,0,VALID,23.8768,VALID,327,VALID,0.716797,
2011-04-22, 00:52:05,VALID,1001.23,VALID,0,VALID,93.5773,VALID,0,VALID,23.8768,VALID,5,VALID,0.743359,
2011-04-22, 00:53:05,VALID,1001.21,VALID,0,VALID,93.5773,VALID,0,VALID,23.8573,VALID,14,VALID,0.493359,
2011-04-22, 00:54:05,VALID,1001.17,VALID,0,VALID,93.5773,VALID,0,VALID,23.8378,VALID,14,VALID,0.399609,
2011-04-22, 00:55:05,VALID,1001.16,VALID,0,VALID,93.5773,VALID,0,VALID,23.8378,VALID,14,VALID,0.352734,
2011-04-22, 00:56:05,VALID,1001.13,VALID,0,VALID,93.5697,VALID,0,VALID,23.8183,VALID,14,VALID,0.537109,
2011-04-22, 00:57:05,VALID,1001.1,VALID,0,VALID,93.5849,VALID,0,VALID,23.797,VALID,343,VALID,0.614062,
2011-04-22, 00:58:05,VALID,1001.11,VALID,0,VALID,93.5773,VALID,0,VALID,23.8183,VALID,343,VALID,0.503516,
2011-04-22, 00:59:05,VALID,1001.08,VALID,0,VALID,93.6078,VALID,0,VALID,23.8183,VALID,6,VALID,0.695313,
2011-04-22, 01:00:05,VALID,1001.11,VALID,0,VALID,93.5926,VALID,0,VALID,23.8183,VALID,14,VALID,0.771094,
2011-04-22, 01:01:05,VALID,1001.1,VALID,0,VALID,93.6002,VALID,0,VALID,23.8183,VALID,24,VALID,0.911328,
2011-04-22, 01:02:05,VALID,1001.11,VALID,0,VALID,93.5926,VALID,0,VALID,23.8183,VALID,4,VALID,0.928125,
2011-04-22, 01:03:05,VALID,1001.08,VALID,0,VALID,93.6078,VALID,0,VALID,23.797,VALID,333,VALID,0.965234,
2011-04-22, 01:04:05,VALID,1001.07,VALID,0,VALID,93.6002,VALID,0.112286,VALID,23.8378,VALID,315,VALID,0.713281,
2011-04-22, 01:05:05,VALID,1001.02,VALID,0,VALID,93.6078,VALID,0,VALID,23.8378,VALID,315,VALID,0.328906,
2011-04-22, 01:06:05,VALID,1001.04,VALID,0,VALID,93.6002,VALID,0,VALID,23.8573,VALID,315,VALID,0.280078,
2011-04-22, 01:07:05,VALID,1001.01,VALID,0,VALID,93.6154,VALID,0,VALID,23.8165,VALID,315,VALID,0.0644531,
2011-04-22, 01:08:05,VALID,1001.02,VALID,0,VALID,93.6002,VALID,0,VALID,23.7988,VALID,327,VALID,0.748438,
2011-04-22, 01:09:05,VALID,1001.06,VALID,0,VALID,93.6154,VALID,0,VALID,23.7793,VALID,345,VALID,1.05586,
2011-04-22, 01:10:05,VALID,1001.08,VALID,0,VALID,93.6383,VALID,0,VALID,23.7988,VALID,359,VALID,1.30664,
2011-04-22, 01:11:05,VALID,1001.11,VALID,0,VALID,93.6154,VALID,0,VALID,23.7988,VALID,356,VALID,1.06758,
2011-04-22, 01:12:05,VALID,1001.11,VALID,0,VALID,93.6078,VALID,0,VALID,23.7988,VALID,359,VALID,1.05977,
2011-04-22, 01:13:05,VALID,1001.1,VALID,0,VALID,93.6383,VALID,0,VALID,23.7775,VALID,11,VALID,1.93633,
2011-04-22, 01:14:05,VALID,1001.05,VALID,0,VALID,93.6231,VALID,0,VALID,23.7597,VALID,16,VALID,1.78398,
2011-04-22, 01:15:05,VALID,1001.01,VALID,0,VALID,93.6307,VALID,0,VALID,23.7402,VALID,19,VALID,1.53789,
2011-04-22, 01:16:05,VALID,1000.95,VALID,0,VALID,93.6383,VALID,0,VALID,23.6817,VALID,30,VALID,1.92656,
2011-04-22, 01:17:05,VALID,1000.91,VALID,0,VALID,93.6612,VALID,0,VALID,23.6232,VALID,23,VALID,1.93203,
2011-04-22, 01:18:05,VALID,1000.89,VALID,0,VALID,93.6688,VALID,0,VALID,23.6036,VALID,41,VALID,2.39766,
2011-04-22, 01:19:05,VALID,1000.89,VALID,0,VALID,93.6688,VALID,0,VALID,23.6036,VALID,11,VALID,1.79297,
2011-04-22, 01:20:05,VALID,1000.89,VALID,0,VALID,93.6612,VALID,0,VALID,23.6232,VALID,349,VALID,1.19219,
2011-04-22, 01:21:05,VALID,1000.86,VALID,0,VALID,93.6688,VALID,0,VALID,23.6232,VALID,349,VALID,1.12891,
2011-04-22, 01:22:05,VALID,1000.83,VALID,0,VALID,93.6765,VALID,0,VALID,23.5841,VALID,351,VALID,0.853516,
2011-04-22, 01:23:05,VALID,1000.8,VALID,0,VALID,93.6765,VALID,0,VALID,23.5646,VALID,332,VALID,0.632031,
2011-04-22, 01:24:05,VALID,1000.75,VALID,0,VALID,93.6688,VALID,0,VALID,23.5646,VALID,332,VALID,0.223047,
2011-04-22, 01:25:05,VALID,1000.66,VALID,0,VALID,93.6917,VALID,0,VALID,23.5451,VALID,16,VALID,1.03945,
2011-04-22, 01:26:05,VALID,1000.63,VALID,0,VALID,93.6917,VALID,0,VALID,23.5256,VALID,51,VALID,1.30664,
2011-04-22, 01:27:05,VALID,1000.57,VALID,0,VALID,93.6841,VALID,0,VALID,23.4866,VALID,54,VALID,1.91875,
2011-04-22, 01:28:05,VALID,1000.57,VALID,0,VALID,93.6917,VALID,0,VALID,23.5061,VALID,46,VALID,2.68359,
2011-04-22, 01:29:05,VALID,1000.59,VALID,0,VALID,93.6917,VALID,0,VALID,23.5061,VALID,45,VALID,2.59883,
2011-04-22, 01:30:05,VALID,1000.58,VALID,0,VALID,93.6765,VALID,0,VALID,23.5061,VALID,32,VALID,2.21992,
2011-04-22, 01:31:05,VALID,1000.58,VALID,0,VALID,93.6917,VALID,0,VALID,23.4866,VALID,31,VALID,2.58203,
2011-04-22, 01:32:05,VALID,1000.59,VALID,0,VALID,93.6917,VALID,0,VALID,23.4866,VALID,37,VALID,2.45078,
2011-04-22, 01:33:05,VALID,1000.58,VALID,0,VALID,93.6612,VALID,0,VALID,23.4085,VALID,23,VALID,2.02031,
2011-04-22, 01:34:05,VALID,1000.55,VALID,0,VALID,93.6994,VALID,0,VALID,23.3695,VALID,37,VALID,1.57305,
2011-04-22, 01:35:05,VALID,1000.49,VALID,0,VALID,93.6917,VALID,0,VALID,23.3305,VALID,49,VALID,0.9375,
2011-04-22, 01:36:05,VALID,1000.43,VALID,0.5,VALID,93.6994,VALID,0,VALID,23.311,VALID,69,VALID,1.40391,
2011-04-22, 01:37:05,VALID,1000.4,VALID,0,VALID,93.7223,VALID,0,VALID,23.2719,VALID,81,VALID,1.31133,
2011-04-22, 01:38:05,VALID,1000.4,VALID,0,VALID,93.7223,VALID,0,VALID,23.311,VALID,55,VALID,0.867188,
2011-04-22, 01:39:05,VALID,1000.38,VALID,0,VALID,93.7146,VALID,0,VALID,23.3323,VALID,62,VALID,1.19883,
2011-04-22, 01:40:05,VALID,1000.34,VALID,0,VALID,93.6917,VALID,0,VALID,23.2932,VALID,64,VALID,0.766797,
2011-04-22, 01:41:05,VALID,1000.32,VALID,0.5,VALID,93.6994,VALID,0,VALID,23.3323,VALID,74,VALID,1.23711,
2011-04-22, 01:42:05,VALID,1000.28,VALID,0,VALID,93.7223,VALID,0,VALID,23.311,VALID,75,VALID,1.41836,
2011-04-22, 01:43:05,VALID,1000.28,VALID,0,VALID,93.7223,VALID,0,VALID,23.2719,VALID,77,VALID,1.37109,
2011-04-22, 01:44:05,VALID,1000.26,VALID,0,VALID,93.707,VALID,0,VALID,23.2737,VALID,79,VALID,1.14766,
2011-04-22, 01:45:05,VALID,1000.24,VALID,0,VALID,93.6994,VALID,0,VALID,23.2542,VALID,78,VALID,0.882031,
2011-04-22, 01:46:05,VALID,1000.2,VALID,0,VALID,93.7146,VALID,0,VALID,23.2542,VALID,74,VALID,1.18867,
2011-04-22, 01:47:05,VALID,1000.16,VALID,0,VALID,93.7223,VALID,0,VALID,23.2347,VALID,69,VALID,1.07148,
2011-04-22, 01:48:05,VALID,1000.16,VALID,0,VALID,93.7299,VALID,0,VALID,23.1744,VALID,70,VALID,1.06602,
2011-04-22, 01:49:05,VALID,1000.14,VALID,0,VALID,93.707,VALID,0,VALID,23.1549,VALID,83,VALID,0.985937,
2011-04-22, 01:50:05,VALID,1000.09,VALID,0,VALID,93.7146,VALID,0,VALID,23.1549,VALID,96,VALID,0.994531,
2011-04-22, 01:51:05,VALID,1000.08,VALID,0,VALID,93.7146,VALID,0,VALID,23.1762,VALID,120,VALID,1.02656,
2011-04-22, 01:52:05,VALID,1000.07,VALID,0,VALID,93.7146,VALID,0,VALID,23.2152,VALID,107,VALID,0.939062,
2011-04-22, 01:53:05,VALID,1000.08,VALID,0,VALID,93.707,VALID,0,VALID,23.2347,VALID,106,VALID,0.885156,
2011-04-22, 01:54:05,VALID,1000.04,VALID,0,VALID,93.707,VALID,0,VALID,23.2329,VALID,110,VALID,1.00039,
2011-04-22, 01:55:05,VALID,1000.07,VALID,0,VALID,93.6994,VALID,0,VALID,23.2524,VALID,107,VALID,0.791797,
2011-04-22, 01:56:05,VALID,1000.07,VALID,0,VALID,93.6994,VALID,0,VALID,23.2329,VALID,101,VALID,1.08164,
2011-04-22, 01:57:05,VALID,1000.05,VALID,0,VALID,93.707,VALID,0,VALID,23.2347,VALID,92,VALID,0.841016,
2011-04-22, 01:58:05,VALID,1000.03,VALID,0,VALID,93.707,VALID,0,VALID,23.2329,VALID,92,VALID,0.775391,
2011-04-22, 01:59:05,VALID,1000.02,VALID,0,VALID,93.7146,VALID,0,VALID,23.2737,VALID,92,VALID,0.40625,
2011-04-22, 02:00:05,VALID,999.978,VALID,0,VALID,93.6917,VALID,0,VALID,23.2737,VALID,92,VALID,0.265625,
2011-04-22, 02:01:05,VALID,999.956,VALID,0,VALID,93.707,VALID,0,VALID,23.2932,VALID,92,VALID,0.341797,
2011-04-22, 02:02:05,VALID,999.908,VALID,0,VALID,93.6917,VALID,0,VALID,23.2932,VALID,100,VALID,0.714844,
2011-04-22, 02:03:05,VALID,999.887,VALID,0,VALID,93.6841,VALID,0,VALID,23.2329,VALID,107,VALID,0.590625,
2011-04-22, 02:04:05,VALID,999.864,VALID,0,VALID,93.7146,VALID,0,VALID,23.2542,VALID,120,VALID,0.895312,
2011-04-22, 02:05:05,VALID,999.868,VALID,0,VALID,93.6994,VALID,0,VALID,23.2329,VALID,119,VALID,0.882813,
2011-04-22, 02:06:05,VALID,999.876,VALID,0,VALID,93.6994,VALID,0,VALID,23.2524,VALID,94,VALID,0.973047,
2011-04-22, 02:07:05,VALID,999.816,VALID,0.5,VALID,93.6994,VALID,0,VALID,23.2737,VALID,93,VALID,0.999609,
2011-04-22, 02:08:04,VALID,999.835,VALID,0,VALID,93.707,VALID,0,VALID,23.2737,VALID,93,VALID,0.869922,
2011-04-22, 02:09:04,VALID,999.812,VALID,0,VALID,93.6994,VALID,0,VALID,23.2737,VALID,93,VALID,0.428906,
2011-04-22, 02:10:04,VALID,999.782,VALID,0,VALID,93.6994,VALID,0,VALID,23.2737,VALID,93,VALID,0.453906,
2011-04-22, 02:11:04,VALID,999.753,VALID,0,VALID,93.707,VALID,0,VALID,23.2737,VALID,93,VALID,0.376172,
2011-04-22, 02:12:04,VALID,999.738,VALID,0,VALID,93.7146,VALID,0,VALID,23.2719,VALID,93,VALID,0.0621094,
2011-04-22, 02:13:04,VALID,999.714,VALID,0,VALID,93.6994,VALID,0,VALID,23.2524,VALID,93,VALID,0,
2011-04-22, 02:14:04,VALID,999.716,VALID,0,VALID,93.6917,VALID,0,VALID,23.2737,VALID,93,VALID,0,
2011-04-22, 02:15:04,VALID,999.655,VALID,0,VALID,93.6994,VALID,0,VALID,23.2932,VALID,93,VALID,0,
2011-04-22, 02:16:04,VALID,999.679,VALID,0.5,VALID,93.707,VALID,0,VALID,23.2932,VALID,93,VALID,0,
2011-04-22, 02:17:04,VALID,999.66,VALID,0,VALID,93.6917,VALID,0,VALID,23.2737,VALID,93,VALID,0,
2011-04-22, 02:18:04,VALID,999.649,VALID,0,VALID,93.6994,VALID,0,VALID,23.2719,VALID,93,VALID,0,
2011-04-22, 02:19:04,VALID,999.637,VALID,0,VALID,93.707,VALID,0,VALID,23.2915,VALID,93,VALID,0,
2011-04-22, 02:20:04,VALID,999.642,VALID,0,VALID,93.707,VALID,0,VALID,23.2932,VALID,93,VALID,0.196094,
2011-04-22, 02:21:04,VALID,999.63,VALID,0,VALID,93.6917,VALID,0,VALID,23.2524,VALID,93,VALID,0.232031,
2011-04-22, 02:22:04,VALID,999.593,VALID,0,VALID,93.7146,VALID,0,VALID,23.2719,VALID,115,VALID,0.592188,
2011-04-22, 02:23:04,VALID,999.573,VALID,0.5,VALID,93.707,VALID,0,VALID,23.2719,VALID,115,VALID,0.626953,
2011-04-22, 02:24:04,VALID,999.599,VALID,0,VALID,93.6765,VALID,0,VALID,23.2915,VALID,115,VALID,0.635938,
2011-04-22, 02:25:04,VALID,999.595,VALID,0,VALID,93.707,VALID,0,VALID,23.2915,VALID,115,VALID,0.610937,
2011-04-22, 02:26:04,VALID,999.578,VALID,0,VALID,93.6994,VALID,0,VALID,23.2915,VALID,118,VALID,0.704297,
2011-04-22, 02:27:04,VALID,999.569,VALID,0,VALID,93.707,VALID,0,VALID,23.311,VALID,125,VALID,0.415234,
2011-04-22, 02:28:04,VALID,999.598,VALID,0,VALID,93.6994,VALID,0,VALID,23.3305,VALID,125,VALID,0.319531,
2011-04-22, 02:29:04,VALID,999.6,VALID,0,VALID,93.707,VALID,0,VALID,23.35,VALID,125,VALID,0.484375,
2011-04-22, 02:30:04,VALID,999.579,VALID,0,VALID,93.7146,VALID,0,VALID,23.3695,VALID,125,VALID,0.529688,
2011-04-22, 02:31:04,VALID,999.569,VALID,0,VALID,93.6994,VALID,0,VALID,23.389,VALID,125,VALID,0.609766,
2011-04-22, 02:32:04,VALID,999.512,VALID,0,VALID,93.707,VALID,0,VALID,23.389,VALID,125,VALID,0.883594,
2011-04-22, 02:33:04,VALID,999.5,VALID,0,VALID,93.707,VALID,0,VALID,23.389,VALID,130,VALID,0.876172,
2011-04-22, 02:34:04,VALID,999.508,VALID,0,VALID,93.6994,VALID,0,VALID,23.3872,VALID,134,VALID,1.06602,
2011-04-22, 02:35:04,VALID,999.492,VALID,0.5,VALID,93.6917,VALID,0,VALID,23.428,VALID,134,VALID,0.800391,
2011-04-22, 02:36:04,VALID,999.473,VALID,0,VALID,93.6917,VALID,0,VALID,23.4475,VALID,137,VALID,1.05117,
2011-04-22, 02:37:04,VALID,999.504,VALID,0,VALID,93.707,VALID,0,VALID,23.4475,VALID,137,VALID,0.960547,
2011-04-22, 02:38:04,VALID,999.482,VALID,0,VALID,93.6841,VALID,0,VALID,23.4263,VALID,137,VALID,0.814062,
2011-04-22, 02:39:04,VALID,999.472,VALID,0,VALID,93.6917,VALID,0,VALID,23.4671,VALID,137,VALID,0.623828,
2011-04-22, 02:40:04,VALID,999.454,VALID,0,VALID,93.7223,VALID,0,VALID,23.4671,VALID,137,VALID,0.668359,
2011-04-22, 02:41:04,VALID,999.456,VALID,0,VALID,93.707,VALID,0,VALID,23.4671,VALID,137,VALID,0.478125,
2011-04-22, 02:42:04,VALID,999.436,VALID,0,VALID,93.6917,VALID,0,VALID,23.4866,VALID,132,VALID,0.876953,
2011-04-22, 02:43:04,VALID,999.45,VALID,0,VALID,93.6841,VALID,0,VALID,23.4653,VALID,131,VALID,0.450781,
2011-04-22, 02:44:04,VALID,999.428,VALID,0,VALID,93.6994,VALID,0.112286,VALID,23.4848,VALID,131,VALID,0.146484,
2011-04-22, 02:45:04,VALID,999.399,VALID,0,VALID,93.707,VALID,0,VALID,23.4866,VALID,114,VALID,0.531641,
2011-04-22, 02:46:04,VALID,999.36,VALID,0,VALID,93.6994,VALID,0,VALID,23.4866,VALID,79,VALID,0.53125,
2011-04-22, 02:47:04,VALID,999.344,VALID,0,VALID,93.707,VALID,0,VALID,23.4866,VALID,79,VALID,0,
2011-04-22, 02:48:04,VALID,999.296,VALID,0,VALID,93.6994,VALID,0,VALID,23.5061,VALID,79,VALID,0,
2011-04-22, 02:49:04,VALID,999.301,VALID,0,VALID,93.6917,VALID,0,VALID,23.5061,VALID,79,VALID,0,
2011-04-22, 02:50:04,VALID,999.263,VALID,0,VALID,93.7223,VALID,0,VALID,23.5256,VALID,79,VALID,0.279687,
2011-04-22, 02:51:04,VALID,999.258,VALID,0,VALID,93.6994,VALID,0,VALID,23.5451,VALID,79,VALID,0.14375,
2011-04-22, 02:52:04,VALID,999.247,VALID,0,VALID,93.7146,VALID,0,VALID,23.5256,VALID,79,VALID,0.10625,
2011-04-22, 02:53:04,VALID,999.234,VALID,0,VALID,93.6841,VALID,0,VALID,23.5451,VALID,79,VALID,0.1875,
2011-04-22, 02:54:04,VALID,999.226,VALID,0,VALID,93.6917,VALID,0.112286,VALID,23.5256,VALID,79,VALID,0,
2011-04-22, 02:55:04,VALID,999.196,VALID,0,VALID,93.7223,VALID,0,VALID,23.5451,VALID,79,VALID,0,
2011-04-22, 02:56:04,VALID,999.213,VALID,0,VALID,93.7146,VALID,0,VALID,23.5256,VALID,79,VALID,0,
2011-04-22, 02:57:04,VALID,999.211,VALID,0,VALID,93.6994,VALID,0,VALID,23.5451,VALID,79,VALID,0,
2011-04-22, 02:58:04,VALID,999.197,VALID,0,VALID,93.707,VALID,0,VALID,23.5646,VALID,79,VALID,0,
2011-04-22, 02:59:04,VALID,999.175,VALID,0,VALID,93.6994,VALID,0,VALID,23.5646,VALID,79,VALID,0,
2011-04-22, 03:00:04,VALID,999.17,VALID,0,VALID,93.6917,VALID,0,VALID,23.5664,VALID,79,VALID,0,
2011-04-22, 03:01:04,VALID,999.141,VALID,0,VALID,93.7146,VALID,0,VALID,23.5646,VALID,79,VALID,0,
2011-04-22, 03:02:04,VALID,999.148,VALID,0,VALID,93.707,VALID,0,VALID,23.5451,VALID,79,VALID,0,
2011-04-22, 03:03:04,VALID,999.093,VALID,0,VALID,93.6994,VALID,0,VALID,23.5256,VALID,79,VALID,0,
2011-04-22, 03:04:04,VALID,999.091,VALID,0,VALID,93.7223,VALID,0,VALID,23.5469,VALID,79,VALID,0,
2011-04-22, 03:05:04,VALID,999.122,VALID,0,VALID,93.7223,VALID,0,VALID,23.5469,VALID,79,VALID,0,
2011-04-22, 03:06:04,VALID,999.056,VALID,0,VALID,93.707,VALID,0,VALID,23.5256,VALID,79,VALID,0,
2011-04-22, 03:07:04,VALID,999.039,VALID,0,VALID,93.7146,VALID,0,VALID,23.5274,VALID,79,VALID,0,
2011-04-22, 03:08:04,VALID,999.072,VALID,0,VALID,93.7146,VALID,0,VALID,23.5061,VALID,79,VALID,0,
2011-04-22, 03:09:04,VALID,999.051,VALID,0,VALID,93.7223,VALID,0,VALID,23.5274,VALID,79,VALID,0,
2011-04-22, 03:10:04,VALID,999.037,VALID,0,VALID,93.7223,VALID,0,VALID,23.5469,VALID,79,VALID,0,
2011-04-22, 03:11:04,VALID,999.015,VALID,0,VALID,93.6994,VALID,0,VALID,23.5469,VALID,79,VALID,0,
2011-04-22, 03:12:04,VALID,999.034,VALID,0,VALID,93.7299,VALID,0,VALID,23.5469,VALID,79,VALID,0,
2011-04-22, 03:13:04,VALID,999.027,VALID,0,VALID,93.7146,VALID,0,VALID,23.5256,VALID,79,VALID,0.622656,
2011-04-22, 03:14:04,VALID,999.005,VALID,0,VALID,93.7146,VALID,0,VALID,23.5256,VALID,79,VALID,0.596094,
2011-04-22, 03:15:04,VALID,998.992,VALID,0,VALID,93.7375,VALID,0,VALID,23.5433,VALID,79,VALID,0.349609,
2011-04-22, 03:16:04,VALID,999.035,VALID,0,VALID,93.7375,VALID,0,VALID,23.5451,VALID,79,VALID,0.276563,
2011-04-22, 03:17:04,VALID,999.003,VALID,0,VALID,93.7299,VALID,0.112286,VALID,23.5646,VALID,79,VALID,0.428125,
2011-04-22, 03:18:04,VALID,999.038,VALID,0,VALID,93.7223,VALID,0,VALID,23.5256,VALID,51,VALID,0.735156,
2011-04-22, 03:19:04,VALID,999.03,VALID,0,VALID,93.7299,VALID,0.112286,VALID,23.5043,VALID,43,VALID,0.828516,
2011-04-22, 03:20:04,VALID,999.007,VALID,0,VALID,93.7375,VALID,0.112286,VALID,23.5433,VALID,42,VALID,1.15039,
2011-04-22, 03:21:04,VALID,999.021,VALID,0,VALID,93.7223,VALID,0,VALID,23.5859,VALID,42,VALID,0.996484,
2011-04-22, 03:22:04,VALID,999,VALID,0,VALID,93.7299,VALID,0,VALID,23.5451,VALID,40,VALID,1.19375,
2011-04-22, 03:23:04,VALID,999.001,VALID,0,VALID,93.7375,VALID,0,VALID,23.5256,VALID,40,VALID,0.833203,
2011-04-22, 03:24:04,VALID,998.998,VALID,0,VALID,93.707,VALID,0,VALID,23.5256,VALID,40,VALID,0.428516,
2011-04-22, 03:25:04,VALID,998.957,VALID,0,VALID,93.7375,VALID,0,VALID,23.5256,VALID,40,VALID,0.146094,
2011-04-22, 03:26:04,VALID,998.923,VALID,0,VALID,93.7299,VALID,0,VALID,23.5061,VALID,40,VALID,0.283984,
2011-04-22, 03:27:04,VALID,998.922,VALID,0,VALID,93.7451,VALID,0,VALID,23.5061,VALID,40,VALID,0.367578,
2011-04-22, 03:28:04,VALID,998.911,VALID,0,VALID,93.7375,VALID,0,VALID,23.5061,VALID,40,VALID,0.43125,
2011-04-22, 03:29:04,VALID,998.887,VALID,0,VALID,93.7451,VALID,0.112286,VALID,23.5061,VALID,40,VALID,0.421875,
2011-04-22, 03:30:04,VALID,998.861,VALID,0,VALID,93.7451,VALID,0,VALID,23.4866,VALID,40,VALID,0.252734,
2011-04-22, 03:31:04,VALID,998.849,VALID,0,VALID,93.7375,VALID,0,VALID,23.5079,VALID,40,VALID,0.383203,
2011-04-22, 03:32:04,VALID,998.845,VALID,0,VALID,93.7604,VALID,0,VALID,23.5079,VALID,40,VALID,0.49375,
2011-04-22, 03:33:04,VALID,998.828,VALID,0,VALID,93.7223,VALID,0,VALID,23.5079,VALID,40,VALID,0.442969,
2011-04-22, 03:34:04,VALID,998.834,VALID,0,VALID,93.7451,VALID,0,VALID,23.5274,VALID,40,VALID,0.549609,
2011-04-22, 03:35:04,VALID,998.848,VALID,0,VALID,93.7451,VALID,0,VALID,23.5469,VALID,40,VALID,0.431641,
2011-04-22, 03:36:04,VALID,998.846,VALID,0,VALID,93.7299,VALID,0,VALID,23.5664,VALID,43,VALID,0.466016,
2011-04-22, 03:37:04,VALID,998.843,VALID,0,VALID,93.7299,VALID,0,VALID,23.5859,VALID,43,VALID,0.680859,
2011-04-22, 03:38:04,VALID,998.836,VALID,0,VALID,93.7299,VALID,0,VALID,23.5646,VALID,47,VALID,0.766016,
2011-04-22, 03:39:04,VALID,998.838,VALID,0,VALID,93.7299,VALID,0,VALID,23.5859,VALID,45,VALID,0.889063,
2011-04-22, 03:40:04,VALID,998.791,VALID,0,VALID,93.7451,VALID,0,VALID,23.5859,VALID,36,VALID,1.08047,
2011-04-22, 03:41:04,VALID,998.826,VALID,0,VALID,93.7299,VALID,0,VALID,23.5451,VALID,40,VALID,0.966016,
2011-04-22, 03:42:04,VALID,998.834,VALID,0,VALID,93.7451,VALID,0,VALID,23.5469,VALID,36,VALID,0.978125,
2011-04-22, 03:43:04,VALID,998.829,VALID,0,VALID,93.7299,VALID,0,VALID,23.5274,VALID,42,VALID,0.816406,
2011-04-22, 03:44:04,VALID,998.838,VALID,0,VALID,93.7528,VALID,0,VALID,23.5061,VALID,40,VALID,0.965234,
2011-04-22, 03:45:04,VALID,998.85,VALID,0,VALID,93.7451,VALID,0,VALID,23.4848,VALID,53,VALID,1.05977,
2011-04-22, 03:46:04,VALID,998.829,VALID,0,VALID,93.7299,VALID,0,VALID,23.5256,VALID,48,VALID,1.17695,
2011-04-22, 03:47:04,VALID,998.836,VALID,0,VALID,93.7451,VALID,0,VALID,23.5256,VALID,60,VALID,1.37852,